Date String (YYYY-MM-DD hh:mm:ss) UTC,Instrument flags,Ambient pressure (hPa),Sample flow (lpm),Bypass flow (lpm),Sample temperature (°C),Ambient temperature (°C),ASC tube jacket temperature (°C),LED temperature (°C),Box temperature (°C),Sample RH (%),Span deviation,Mass concentration (μg/m³),Mass concentration (μg/m³),Mass concentration (μg/m³)
DateTimeUTC,F1_M11,P_M11,Q1_M11,Q2_M11,T1_M11,T2_M11,T3_M11,T4_M11,T5_M11,U1_M11,ZSPAN_M11,X0_M11,X2_M11,X1_M11
2022-10-19 12:00:00,,0832.1,4.99,0.00,26.2,24.5,00.0,35.1,28.0,07.2,0000.0,0001.28,0000.77,0000.58
2022-10-19 12:01:00,,0832.1,5.00,0.00,26.2,24.5,00.0,35.1,27.9,07.2,0000.0,0001.26,0000.76,0000.58
2022-10-19 12:02:00,,0832.0,5.01,0.00,26.2,24.5,00.0,35.1,27.9,07.3,0000.0,0001.31,0000.79,0000.58
2022-10-19 12:03:00,,0831.9,4.99,0.00,26.1,24.5,00.0,35.1,27.8,07.3,0000.0,0001.42,0000.82,0000.58
2022-10-19 12:04:00,,0831.9,5.01,0.00,26.1,24.5,00.0,35.1,27.9,07.3,0000.0,0001.43,0000.82,0000.59
2022-10-19 12:05:00,,0831.9,5.00,0.00,26.1,24.5,00.0,35.1,27.9,07.3,0000.0,0001.31,0000.81,0000.59
2022-10-19 12:06:00,,0832.0,5.01,0.00,26.1,24.5,00.0,35.0,27.9,07.3,0000.0,0001.15,0000.77,0000.59
2022-10-19 12:07:00,,0831.9,4.99,0.00,26.1,24.5,00.0,35.0,27.9,07.3,0000.0,0001.17,0000.78,0000.59
2022-10-19 12:08:00,,0832.0,5.00,0.00,26.1,24.5,00.0,35.0,27.9,07.3,0000.0,0001.34,0000.82,0000.58
2022-10-19 12:09:00,,0832.0,5.02,0.00,26.1,24.4,00.0,35.0,27.8,07.3,0000.0,0001.37,0000.83,0000.58
2022-10-19 12:10:00,,0831.9,5.00,0.00,26.1,24.4,00.0,35.0,27.8,07.3,0000.0,0001.34,0000.82,0000.57
2022-10-19 12:11:00,,0832.0,5.00,0.00,26.1,24.4,00.0,35.0,27.9,07.3,0000.0,0001.35,0000.82,0000.57
2022-10-19 12:12:00,,0832.0,5.00,0.00,26.1,24.4,00.0,35.0,27.9,07.3,0000.0,0001.39,0000.84,0000.58
2022-10-19 12:13:00,,0832.0,5.00,0.00,26.1,24.4,00.0,35.0,27.8,07.3,0000.0,0001.73,0000.82,0000.57
2022-10-19 12:14:00,,0831.9,5.00,0.00,26.0,24.4,00.0,35.0,27.8,07.2,0000.0,0002.18,0000.79,0000.57
2022-10-19 12:15:00,,0832.0,5.01,0.00,26.0,24.4,00.0,35.0,27.8,07.2,0000.0,0002.12,0000.77,0000.56
2022-10-19 12:16:00,,0831.9,4.99,0.00,26.0,24.4,00.0,35.0,27.8,07.2,0000.0,0002.07,0000.74,0000.54
2022-10-19 12:17:00,,0831.9,4.99,0.00,26.0,24.4,00.0,35.0,27.8,07.2,0000.0,0002.02,0000.73,0000.55
2022-10-19 12:18:00,,0831.9,5.01,0.00,26.0,24.4,00.0,35.0,27.8,07.2,0000.0,0001.95,0000.70,0000.55
2022-10-19 12:19:00,,0832.0,5.00,0.00,26.0,24.4,00.0,34.9,27.8,07.2,0000.0,0001.81,0000.68,0000.55
2022-10-19 12:20:00,,0832.0,4.99,0.00,26.0,24.4,00.0,34.9,27.8,07.2,0000.0,0001.75,0000.66,0000.55
2022-10-19 12:21:00,,0831.9,5.00,0.00,26.0,24.4,00.0,34.9,27.8,07.2,0000.0,0001.74,0000.65,0000.55
2022-10-19 12:22:00,,0832.0,5.00,0.00,26.0,24.4,00.0,34.9,27.8,07.1,0000.0,0001.74,0000.65,0000.55
2022-10-19 12:23:00,,0832.0,5.00,0.00,26.0,24.4,00.0,34.9,27.8,07.1,0000.0,0001.85,0000.65,0000.55
2022-10-19 12:24:00,,0832.0,5.00,0.00,26.0,24.4,00.0,34.9,27.7,07.0,0000.0,0001.36,0000.64,0000.54
2022-10-19 12:25:00,,0831.9,5.00,0.00,26.0,24.4,00.0,34.9,27.8,07.0,0000.0,0000.91,0000.63,0000.54
2022-10-19 12:26:00,,0831.9,5.01,0.00,26.0,24.4,00.0,34.9,27.8,07.1,0000.0,0000.92,0000.63,0000.54
2022-10-19 12:27:00,,0831.9,5.00,0.00,26.0,24.3,00.0,34.9,27.7,07.0,0000.0,0001.03,0000.64,0000.54
2022-10-19 12:28:00,,0832.0,5.00,0.00,26.0,24.4,00.0,34.9,27.8,07.0,0000.0,0001.06,0000.64,0000.54
2022-10-19 12:29:00,,0832.0,5.02,0.00,26.0,24.3,00.0,34.9,27.8,07.0,0000.0,0001.23,0000.64,0000.53
2022-10-19 12:30:00,,0832.0,5.00,0.00,26.0,24.3,00.0,34.9,27.8,07.0,0000.0,0001.41,0000.63,0000.52
2022-10-19 12:31:00,,0832.0,5.01,0.00,26.0,24.3,00.0,34.9,27.8,07.0,0000.0,0001.47,0000.65,0000.52
2022-10-19 12:32:00,,0832.0,5.00,0.00,25.9,24.3,00.0,34.9,27.7,07.0,0000.0,0001.67,0000.66,0000.52
2022-10-19 12:33:00,,0832.0,4.99,0.00,25.9,24.3,00.0,34.8,27.7,07.0,0000.0,0001.66,0000.66,0000.52
2022-10-19 12:34:00,,0832.0,5.00,0.00,25.9,24.3,00.0,34.8,27.7,07.0,0000.0,0001.52,0000.64,0000.52
2022-10-19 12:35:00,,0832.0,5.00,0.00,25.9,24.3,00.0,34.8,27.7,07.0,0000.0,0001.51,0000.63,0000.51
2022-10-19 12:36:00,,0832.0,5.01,0.00,25.9,24.3,00.0,34.8,27.7,07.1,0000.0,0001.52,0000.63,0000.51
2022-10-19 12:37:00,,0832.0,5.00,0.00,25.9,24.3,00.0,34.8,27.7,07.1,0000.0,0001.53,0000.64,0000.51
2022-10-19 12:38:00,,0832.0,5.00,0.00,25.9,24.3,00.0,34.8,27.7,07.0,0000.0,0001.47,0000.66,0000.50
2022-10-19 12:39:00,,0831.9,4.99,0.00,25.9,24.3,00.0,34.8,27.7,07.1,0000.0,0001.46,0000.67,0000.50
2022-10-19 12:40:00,,0832.0,5.00,0.00,25.9,24.3,00.0,34.8,27.7,07.1,0000.0,0001.35,0000.70,0000.50
2022-10-19 12:41:00,,0832.0,5.00,0.00,25.9,24.3,00.0,34.8,27.7,07.0,0000.0,0001.23,0000.73,0000.50
2022-10-19 12:42:00,,0832.0,5.00,0.00,25.9,24.3,00.0,34.8,27.7,06.9,0000.0,0001.22,0000.73,0000.50
2022-10-19 12:43:00,,0832.0,5.01,0.00,25.9,24.2,00.0,34.8,27.6,07.0,0000.0,0001.29,0000.73,0000.49
2022-10-19 12:44:00,,0831.9,4.99,0.00,25.9,24.2,00.0,34.8,27.6,06.9,0000.0,0001.30,0000.73,0000.49
2022-10-19 12:45:00,,0832.0,5.01,0.00,25.8,24.2,00.0,34.8,27.6,06.9,0000.0,0001.92,0000.75,0000.48
2022-10-19 12:46:00,,0832.0,4.99,0.00,25.8,24.2,00.0,34.8,27.6,07.0,0000.0,0003.05,0000.77,0000.48
2022-10-19 12:47:00,,0831.9,5.01,0.00,25.8,24.2,00.0,34.8,27.7,07.0,0000.0,0003.57,0000.79,0000.50
2022-10-19 12:48:00,,0832.0,4.99,0.00,25.8,24.2,00.0,34.8,27.6,07.0,0000.0,0003.63,0000.79,0000.50
2022-10-19 12:49:00,,0831.9,5.02,0.00,25.8,24.2,00.0,34.7,27.6,07.0,0000.0,0003.66,0000.76,0000.50
2022-10-19 12:50:00,,0831.8,4.99,0.00,25.8,24.2,00.0,34.7,27.6,07.0,0000.0,0003.73,0000.75,0000.50
2022-10-19 12:51:00,,0831.8,4.99,0.00,25.8,24.2,00.0,34.7,27.6,07.0,0000.0,0003.64,0000.71,0000.50
2022-10-19 12:52:00,,0831.8,5.01,0.00,25.8,24.2,00.0,34.7,27.6,07.0,0000.0,0003.57,0000.67,0000.51
2022-10-19 12:53:00,,0831.8,4.99,0.00,25.8,24.1,00.0,34.7,27.5,07.0,0000.0,0003.58,0000.67,0000.52
2022-10-19 12:54:00,,0831.9,5.00,0.00,25.8,24.1,00.0,34.7,27.5,07.0,0000.0,0003.47,0000.68,0000.52
2022-10-19 12:55:00,,0831.8,4.99,0.00,25.8,24.1,00.0,34.7,27.5,07.0,0000.0,0003.38,0000.68,0000.52
2022-10-19 12:56:00,,0831.8,5.01,0.00,25.8,24.2,00.0,34.7,27.6,07.0,0000.0,0003.08,0000.67,0000.52
2022-10-19 12:57:00,,0831.8,4.98,0.00,25.8,24.2,00.0,34.7,27.6,07.0,0000.0,0002.48,0000.64,0000.51
2022-10-19 12:58:00,,0831.8,5.02,0.00,25.7,24.2,00.0,34.7,27.5,06.9,0000.0,0001.72,0000.64,0000.49
2022-10-19 12:59:00,,0831.8,4.99,0.00,25.7,24.2,00.0,34.7,27.5,07.0,0000.0,0001.68,0000.63,0000.49
